DW4277 Weather Reports


time (UTC)temp
F
wind
direction
speed
knots
gust
knots
rain 1hr
in
rain 24hr
in
rain mn
in
humidity
%
barometer
mb
20260831044527 65 201 0.0 0.0 0.00 0.00 0.00 78 1012.7
20260831043028 64 202 0.0 0.0 0.00 0.00 0.00 78 1012.5
20260831041523 64 201 0.0 0.0 0.00 0.00 0.00 77 1012.5
20260831040040 64 201 0.0 0.0 0.00 0.00 0.00 77 1012.4
20260831034529 64 201 0.0 0.0 0.00 0.00 0.00 77 1012.3
20260831033020 64 202 0.0 0.0 0.00 0.00 0.00 77 1012.2
20260831031517 64 201 0.0 0.0 0.00 0.00 0.00 77 1012.2
20260831030036 64 202 0.0 0.0 0.00 0.00 0.00 78 1012.3
20260831024518 63 201 0.0 0.0 0.00 0.00 0.00 78 1012.3
20260831023014 64 201 0.0 0.0 0.00 0.00 0.00 77 1012.5
20260831021511 64 201 0.0 0.0 0.00 0.00 0.00 77 1012.5
20260831020010 65 201 0.0 0.0 0.00 0.00 0.00 76 1012.6
20260831014508 65 201 0.0 0.0 0.00 0.00 0.00 75 1012.7
20260831013006 66 201 0.0 0.0 0.00 0.00 0.00 74 1012.6
20260831011505 66 201 0.0 0.0 0.00 0.00 0.00 74 1012.6
20260831010005 66 201 0.0 0.0 0.00 0.00 0.00 73 1012.7
20260831004502 66 201 0.0 0.0 0.00 0.00 0.00 73 1012.8
20260831003100 66 201 0.0 0.0 0.00 0.00 0.00 73 1013.0
20260831001558 67 201 0.0 0.0 0.00 0.00 0.00 74 1013.0
20260830234601 68 201 0.0 0.0 0.00 0.00 0.00 73 1013.1
20260830233101 68 201 0.0 0.0 0.00 0.00 0.00 70 1013.1
20260830231552 68 201 0.0 0.0 0.00 0.00 0.00 69 1013.2
20260830230050 68 201 0.0 0.0 0.00 0.00 0.00 69 1013.3
20260830224547 69 201 0.0 0.0 0.00 0.00 0.00 70 1013.3
20260830223046 70 201 0.0 0.0 0.00 0.00 0.00 69 1013.3
20260830221548 70 201 0.0 0.0 0.00 0.00 0.00 69 1013.4
20260830220056 71 201 0.0 0.0 0.00 0.00 0.00 67 1013.4
20260830214538 72 201 0.0 0.0 0.00 0.00 0.00 68 1013.3
20260830213037 74 201 0.0 0.0 0.00 0.00 0.00 68 1013.3
20260830211537 74 201 0.0 0.0 0.00 0.00 0.00 60 1013.4
20260830210036 75 201 0.0 0.0 0.00 0.00 0.00 58 1013.3
20260830204549 75 201 0.0 0.0 0.00 0.00 0.00 56 1013.4
20260830203035 76 201 0.0 0.0 0.00 0.00 0.00 55 1013.3
20260830201534 77 201 0.0 0.0 0.00 0.00 0.00 54 1013.4
20260830200038 77 201 0.0 0.0 0.00 0.00 0.00 52 1013.4
20260830194539 77 201 0.0 0.0 0.00 0.00 0.00 50 1013.3
20260830193033 78 201 0.0 0.0 0.00 0.00 0.00 49 1013.3
20260830191611 78 201 0.0 0.0 0.00 0.00 0.00 48 1013.1
20260830190041 79 201 0.0 0.0 0.00 0.00 0.00 46 1013.1
20260830184536 80 201 0.0 0.0 0.00 0.00 0.00 45 1013.1
20260830183033 81 201 0.0 0.0 0.00 0.00 0.00 44 1013.0
20260830181531 82 201 0.0 0.0 0.00 0.00 0.00 43 1012.9
20260830180036 83 201 0.0 0.0 0.00 0.00 0.00 42 1012.8
20260830174532 84 201 0.0 0.0 0.00 0.00 0.00 41 1012.7
20260830173029 85 201 0.0 0.0 0.00 0.00 0.00 40 1012.6
20260830171529 85 201 0.9 7.8 0.00 0.00 0.00 39 1012.6
20260830170029 86 201 0.0 0.0 0.00 0.00 0.00 38 1012.5
20260830164528 87 201 2.6 12.2 0.00 0.00 0.00 37 1012.5
20260830163037 87 194 4.3 10.4 0.00 0.00 0.00 37 1012.4
20260830161525 87 194 0.0 13.0 0.00 0.00 0.00 37 1012.6
20260830160035 88 216 6.1 15.6 0.00 0.00 0.00 37 1012.7
20260830154526 88 208 0.9 16.5 0.00 0.00 0.00 36 1012.7
20260830153021 89 240 0.0 8.7 0.00 0.00 0.00 37 1012.8
20260830151521 89 257 1.7 13.0 0.00 0.00 0.00 36 1012.9
20260830150023 89 223 0.0 9.6 0.00 0.00 0.00 38 1012.9
20260830144524 88 249 0.0 6.1 0.00 0.00 0.00 37 1013.0
20260830143017 88 224 0.9 9.6 0.00 0.00 0.00 37 1013.1
20260830141516 88 254 0.0 3.5 0.00 0.00 0.00 38 1013.3
20260830140012 87 235 0.0 0.0 0.00 0.00 0.00 40 1013.4
20260830134511 86 235 1.7 11.3 0.00 0.00 0.00 40 1013.5
20260830133008 87 230 1.7 12.2 0.00 0.00 0.00 40 1013.6
20260830131513 87 212 6.1 21.7 0.00 0.00 0.00 38 1013.7
20260830130007 88 235 0.0 9.6 0.00 0.00 0.00 38 1013.8
20260830124506 88 223 0.0 15.6 0.00 0.00 0.00 39 1013.9
20260830123002 87 183 0.0 0.0 0.00 0.00 0.00 39 1014.0
20260830121600 87 137 7.8 13.0 0.00 0.00 0.00 39 1014.2
20260830120118 85 48 0.9 11.3 0.00 0.00 0.00 39 1014.2
20260830114557 86 113 1.7 8.7 0.00 0.00 0.00 39 1014.4
20260830113053 86 270 0.0 0.0 0.00 0.00 0.00 39 1014.5
20260830111550 85 7 0.0 13.0 0.00 0.00 0.00 40 1014.7
20260830110047 84 41 6.1 20.0 0.00 0.00 0.00 41 1014.8
20260830104546 84 86 3.5 9.6 0.00 0.00 0.00 42 1014.9
20260830103045 83 48 0.0 10.4 0.00 0.00 0.00 43 1015.0
20260830101542 84 97 4.3 10.4 0.00 0.00 0.00 42 1015.2
20260830100042 83 9 1.7 11.3 0.00 0.00 0.00 41 1015.5
20260830094540 83 108 0.9 7.0 0.00 0.00 0.00 45 1015.5
20260830093036 80 119 0.9 9.6 0.00 0.00 0.00 49 1015.5
20260830091529 81 51 4.3 11.3 0.00 0.00 0.00 48 1015.7
20260830090028 80 13 0.0 9.6 0.00 0.00 0.00 49 1015.9
20260830084521 79 13 0.0 11.3 0.00 0.00 0.00 50 1015.9
20260830083017 78 351 0.0 11.3 0.00 0.00 0.00 50 1016.0
20260830081530 77 346 0.0 0.0 0.00 0.00 0.00 51 1016.0
20260830080011 76 346 0.0 0.0 0.00 0.00 0.00 53 1016.0
20260830074516 75 346 0.0 0.0 0.00 0.00 0.00 55 1016.0
20260830073001 73 346 0.0 0.0 0.00 0.00 0.00 57 1015.9
20260830071609 72 346 0.0 0.0 0.00 0.00 0.00 59 1016.0
20260830070109 71 346 0.0 0.0 0.00 0.00 0.00 63 1016.0
20260830064550 70 346 0.0 0.0 0.00 0.00 0.00 65 1015.8
20260830063045 68 346 0.0 0.0 0.00 0.00 0.00 68 1015.7
20260830061542 67 346 0.0 0.0 0.00 0.00 0.00 71 1015.7
20260830060048 66 346 0.0 0.0 0.00 0.00 0.00 74 1015.7
20260830054533 64 346 0.0 0.0 0.00 0.00 0.00 76 1015.7
20260830053029 63 346 0.0 0.0 0.00 0.00 0.00 77 1015.5
20260830051534 63 346 0.0 0.0 0.00 0.00 0.00 78 1015.4
20260830050020 62 346 0.0 0.0 0.00 0.00 0.00 79 1015.4